{"data":{"norad_id":67859,"intl_designator":"2026-034K","name":"STARLINK-36393","alt_names":[],"object_type":"PAYLOAD","status":"ACTIVE","operator":null,"country":"US","launch_date":"2026-02-20","launch_site_code":"AFETR","launch_vehicle":null,"mission":null,"orbit_class":"UNKNOWN","rcs_meters":null,"size_class":null,"mass_kg":null,"dimensions":null,"purposes":["comms"],"wikipedia_slug":null,"has_3d_model":false,"image_url":null,"decayed_at":null,"tle_current":{"epoch":"2026-05-25T03:58:38.460288Z","epoch_age_seconds":54689,"freshness":"FRESH","line1":"1 67859U 26034K   26145.16572292  .00018302  00000+0  59968-3 0  9995","line2":"2 67859  53.1596 208.3693 0002153  85.3416 274.7832 15.31722223 15754","mean_motion":15.31722223,"eccentricity":0.0002153,"inclination_deg":53.1596,"raan_deg":208.3693,"arg_perigee_deg":85.3416,"mean_anomaly_deg":274.7832,"bstar":0.00059968,"rev_number":1575,"period_min":94.011823970253,"perigee_km":469.19920146541,"apogee_km":472.14829937454,"semimajor_km":6848.81075042,"source":"CELESTRAK","updated_at":"2026-05-25T13:38:21.726520Z"}}}